BKB2 CYKA-CYKA

Flight info

Callsign BKB2
Flight time 2h 5m
Altitude 7500
Route CAL3 DCT CYVK DCT CZAM DCT CSQ2
Aircraft PC12/L-SDFGRWY/S

Departure

Time 2026-04-27 10:39
Airport Kamloops John Moose Fulton Field Regional Airport (CYKA)

Arrival

Time 2026-04-27 12:44
Airport Kamloops John Moose Fulton Field Regional Airport (CYKA)
Time Latitude Longitude Altitude Speed Heading
2026-04-27 10:29 50.70581 -120.43751 1168 ft 0 kts 59°
2026-04-27 10:34 50.70581 -120.43750 1131 ft 0 kts 60°
2026-04-27 10:34 50.70583 -120.43744 1131 ft 4 kts 57°
2026-04-27 10:34 50.70608 -120.43751 1132 ft 7 kts 258°
2026-04-27 10:34 50.70580 -120.43836 1132 ft 10 kts 242°
2026-04-27 10:35 50.70541 -120.43946 1131 ft 13 kts 233°
2026-04-27 10:35 50.70462 -120.44029 1132 ft 15 kts 212°
2026-04-27 10:35 50.70403 -120.44165 1131 ft 15 kts 248°
2026-04-27 10:35 50.70361 -120.44310 1130 ft 15 kts 293°
2026-04-27 10:36 50.70421 -120.44436 1131 ft 16 kts 281°
2026-04-27 10:36 50.70445 -120.44608 1132 ft 16 kts 285°
2026-04-27 10:36 50.70468 -120.44766 1131 ft 14 kts 283°
2026-04-27 10:36 50.70491 -120.44917 1132 ft 14 kts 283°
2026-04-27 10:37 50.70513 -120.45058 1133 ft 13 kts 283°
2026-04-27 10:37 50.70510 -120.45192 1133 ft 12 kts 241°
2026-04-27 10:37 50.70467 -120.45305 1134 ft 12 kts 238°
2026-04-27 10:37 50.70420 -120.45402 1133 ft 11 kts 218°
2026-04-27 10:38 50.70378 -120.45346 1132 ft 9 kts 102°
2026-04-27 10:38 50.70331 -120.45047 1132 ft 51 kts 104°
2026-04-27 10:38 50.70216 -120.44280 1132 ft 88 kts 103°
2026-04-27 10:38 50.70060 -120.43230 1227 ft 103 kts 103°
2026-04-27 10:39 50.69905 -120.42092 1458 ft 109 kts 102°
2026-04-27 10:39 50.69698 -120.40926 1746 ft 112 kts 109°
2026-04-27 10:39 50.69436 -120.39711 1909 ft 129 kts 109°
2026-04-27 10:39 50.69141 -120.38307 2154 ft 142 kts 109°
2026-04-27 10:40 50.68804 -120.36780 2513 ft 148 kts 116°
2026-04-27 10:40 50.68032 -120.35690 2992 ft 157 kts 162°
2026-04-27 10:40 50.66959 -120.35734 3315 ft 162 kts 197°
2026-04-27 10:40 50.65899 -120.36427 3647 ft 169 kts 204°
2026-04-27 10:41 50.64823 -120.37263 4057 ft 175 kts 207°
2026-04-27 10:41 50.63722 -120.38143 4521 ft 180 kts 210°
2026-04-27 10:41 50.62561 -120.38944 4968 ft 185 kts 199°
2026-04-27 10:41 50.61270 -120.39293 5389 ft 191 kts 184°
2026-04-27 10:42 50.59928 -120.39173 5776 ft 196 kts 173°
2026-04-27 10:42 50.58578 -120.38753 6171 ft 200 kts 167°
2026-04-27 10:42 50.57218 -120.38178 6566 ft 204 kts 164°
2026-04-27 10:42 50.55848 -120.37531 6941 ft 206 kts 163°
2026-04-27 10:43 50.54489 -120.36862 7323 ft 203 kts 163°
2026-04-27 10:43 50.53130 -120.36183 7487 ft 210 kts 163°
2026-04-27 10:43 50.51718 -120.35477 7517 ft 221 kts 163°
2026-04-27 10:43 50.50228 -120.34733 7525 ft 227 kts 163°
2026-04-27 10:44 50.48707 -120.33974 7530 ft 231 kts 163°
2026-04-27 10:44 50.47159 -120.33200 7531 ft 234 kts 163°
2026-04-27 10:44 50.45599 -120.32420 7532 ft 236 kts 163°
2026-04-27 10:44 50.44028 -120.31634 7530 ft 237 kts 163°
2026-04-27 10:45 50.42457 -120.30848 7533 ft 237 kts 163°
2026-04-27 10:45 50.40884 -120.30062 7539 ft 237 kts 163°
2026-04-27 10:45 50.39306 -120.29273 7539 ft 238 kts 163°
2026-04-27 10:45 50.37742 -120.28491 7528 ft 232 kts 163°
2026-04-27 10:46 50.36240 -120.27741 7535 ft 225 kts 163°
2026-04-27 10:46 50.34767 -120.27003 7532 ft 220 kts 163°
2026-04-27 10:46 50.33329 -120.26283 7527 ft 214 kts 163°
2026-04-27 10:46 50.31928 -120.25582 7530 ft 209 kts 163°
2026-04-27 10:47 50.30531 -120.24883 7357 ft 214 kts 163°
2026-04-27 10:47 50.29095 -120.24163 7147 ft 219 kts 163°
2026-04-27 10:47 50.27648 -120.23441 6934 ft 212 kts 163°
2026-04-27 10:47 50.26293 -120.22768 6733 ft 197 kts 163°
2026-04-27 10:48 50.25026 -120.22140 6532 ft 186 kts 163°
2026-04-27 10:48 50.23819 -120.21541 6327 ft 178 kts 163°
2026-04-27 10:48 50.22652 -120.20964 6110 ft 173 kts 164°
2026-04-27 10:48 50.21520 -120.20405 5888 ft 169 kts 163°
2026-04-27 10:49 50.20436 -120.19767 5647 ft 165 kts 143°
2026-04-27 10:49 50.19595 -120.18598 5327 ft 159 kts 138°
2026-04-27 10:49 50.18679 -120.17758 5087 ft 154 kts 156°
2026-04-27 10:49 50.17665 -120.17299 4878 ft 151 kts 170°
2026-04-27 10:50 50.16620 -120.17074 4690 ft 151 kts 173°
2026-04-27 10:50 50.15575 -120.16894 4532 ft 151 kts 173°
2026-04-27 10:50 50.14685 -120.16160 4383 ft 148 kts 135°
2026-04-27 10:50 50.13964 -120.15017 4221 ft 146 kts 134°
2026-04-27 10:51 50.13304 -120.13864 4022 ft 141 kts 128°
2026-04-27 10:51 50.13042 -120.12563 4020 ft 120 kts 69°
2026-04-27 10:51 50.13618 -120.11833 3890 ft 107 kts 354°
2026-04-27 10:51 50.14281 -120.12178 3750 ft 98 kts 329°
2026-04-27 10:52 50.14981 -120.12348 3489 ft 103 kts 347°
2026-04-27 10:52 50.15636 -120.12610 3270 ft 95 kts 323°
2026-04-27 10:52 50.15991 -120.13391 3123 ft 85 kts 278°
2026-04-27 10:52 50.16080 -120.14293 3136 ft 85 kts 281°
2026-04-27 10:53 50.16247 -120.15185 3040 ft 85 kts 282°
2026-04-27 10:53 50.16486 -120.16749 2884 ft 39 kts 285°
2026-04-27 10:53 50.16506 -120.16889 2883 ft 6 kts 306°
2026-04-27 10:54 50.16507 -120.16857 2883 ft 8 kts 93°
2026-04-27 10:54 50.16484 -120.16734 2884 ft 14 kts 104°
2026-04-27 10:54 50.16470 -120.16633 2885 ft 15 kts 102°
2026-04-27 10:54 50.16443 -120.16473 2885 ft 16 kts 104°
2026-04-27 10:55 50.16418 -120.16318 2886 ft 13 kts 102°
2026-04-27 10:55 50.16390 -120.16204 2885 ft 6 kts 133°
2026-04-27 10:55 50.16387 -120.16191 2885 ft 0 kts 99°
2026-04-27 11:01 50.16387 -120.16188 2886 ft 1 kts 89°
2026-04-27 11:01 50.16397 -120.16187 2887 ft 2 kts 303°
2026-04-27 11:01 50.16398 -120.16192 2887 ft 1 kts 286°
2026-04-27 11:02 50.16402 -120.16214 2890 ft 0 kts 281°
2026-04-27 11:02 50.16403 -120.16222 2888 ft 8 kts 280°
2026-04-27 11:02 50.16451 -120.16542 2888 ft 52 kts 286°
2026-04-27 11:02 50.16570 -120.17303 2898 ft 87 kts 282°
2026-04-27 11:03 50.16705 -120.18244 3147 ft 88 kts 279°
2026-04-27 11:03 50.16768 -120.19181 3431 ft 90 kts 257°
2026-04-27 11:03 50.16359 -120.19907 3671 ft 99 kts 197°
2026-04-27 11:03 50.15722 -120.19559 3948 ft 108 kts 122°
2026-04-27 11:04 50.15624 -120.18394 4185 ft 115 kts 81°
2026-04-27 11:04 50.15761 -120.17103 4401 ft 125 kts 76°
2026-04-27 11:04 50.15975 -120.15717 4605 ft 142 kts 75°
2026-04-27 11:04 50.16245 -120.14107 4788 ft 163 kts 76°
2026-04-27 11:05 50.16516 -120.12291 5044 ft 179 kts 79°
2026-04-27 11:05 50.16766 -120.10308 5350 ft 193 kts 79°
2026-04-27 11:05 50.17004 -120.08188 5671 ft 203 kts 80°
2026-04-27 11:05 50.17239 -120.05967 5993 ft 211 kts 80°
2026-04-27 11:06 50.17475 -120.03673 6288 ft 217 kts 79°
2026-04-27 11:06 50.17715 -120.01329 6533 ft 220 kts 79°
2026-04-27 11:06 50.17955 -119.98978 6783 ft 223 kts 78°
2026-04-27 11:06 50.18201 -119.96571 6954 ft 229 kts 78°
2026-04-27 11:07 50.18460 -119.94065 6980 ft 238 kts 78°
2026-04-27 11:07 50.18726 -119.91478 6998 ft 245 kts 79°
2026-04-27 11:07 50.18999 -119.88818 7014 ft 251 kts 79°
2026-04-27 11:07 50.19277 -119.86109 7044 ft 253 kts 78°
2026-04-27 11:08 50.19550 -119.83435 7316 ft 246 kts 78°
2026-04-27 11:08 50.19819 -119.80812 7452 ft 245 kts 78°
2026-04-27 11:08 50.20091 -119.78163 7472 ft 248 kts 78°
2026-04-27 11:08 50.20366 -119.75484 7489 ft 251 kts 78°
2026-04-27 11:09 50.20643 -119.72777 7501 ft 253 kts 79°
2026-04-27 11:09 50.20918 -119.70055 7502 ft 254 kts 79°
2026-04-27 11:09 50.21188 -119.67363 7504 ft 251 kts 79°
2026-04-27 11:09 50.21442 -119.64793 7506 ft 229 kts 79°
2026-04-27 11:10 50.21675 -119.62428 7509 ft 212 kts 79°
2026-04-27 11:10 50.21895 -119.60225 7510 ft 198 kts 78°
2026-04-27 11:10 50.22095 -119.58211 7492 ft 178 kts 78°
2026-04-27 11:10 50.22279 -119.56361 7290 ft 170 kts 78°
2026-04-27 11:11 50.22438 -119.54544 7021 ft 168 kts 88°
2026-04-27 11:11 50.22067 -119.52806 6772 ft 170 kts 112°
2026-04-27 11:11 50.21556 -119.51143 6526 ft 171 kts 114°
2026-04-27 11:11 50.21024 -119.49482 6292 ft 171 kts 115°
2026-04-27 11:12 50.20591 -119.47790 6036 ft 164 kts 88°
2026-04-27 11:12 50.20818 -119.46119 5786 ft 152 kts 70°
2026-04-27 11:12 50.21161 -119.44570 5396 ft 148 kts 67°
2026-04-27 11:12 50.21518 -119.43122 5016 ft 142 kts 66°
2026-04-27 11:13 50.21812 -119.41662 4618 ft 140 kts 90°
2026-04-27 11:13 50.21645 -119.40190 4222 ft 136 kts 82°
2026-04-27 11:13 50.22207 -119.39148 3842 ft 132 kts 24°
2026-04-27 11:13 50.23035 -119.38672 3430 ft 121 kts 15°
2026-04-27 11:14 50.23805 -119.38413 2986 ft 108 kts 18°
2026-04-27 11:14 50.24196 -119.37550 2571 ft 102 kts 80°
2026-04-27 11:14 50.24223 -119.36459 2218 ft 100 kts 94°
2026-04-27 11:14 50.24177 -119.35365 1785 ft 104 kts 87°
2026-04-27 11:15 50.24355 -119.34252 1302 ft 106 kts 67°
2026-04-27 11:15 50.24581 -119.33256 1163 ft 83 kts 68°
2026-04-27 11:15 50.24697 -119.32722 1163 ft 32 kts 70°
2026-04-27 11:15 50.24770 -119.32485 1165 ft 17 kts
2026-04-27 11:16 50.24857 -119.32519 1165 ft 11 kts
2026-04-27 11:16 50.24879 -119.32545 1165 ft 0 kts 268°
2026-04-27 11:20 50.24879 -119.32546 1167 ft 0 kts 267°
2026-04-27 11:20 50.24864 -119.32551 1173 ft 5 kts 153°
2026-04-27 11:21 50.24831 -119.32514 1174 ft 7 kts 160°
2026-04-27 11:21 50.24803 -119.32587 1172 ft 11 kts 257°
2026-04-27 11:21 50.24781 -119.32723 1173 ft 14 kts 251°
2026-04-27 11:21 50.24762 -119.32866 1171 ft 14 kts 256°
2026-04-27 11:22 50.24738 -119.33014 1169 ft 11 kts 256°
2026-04-27 11:22 50.24712 -119.33054 1169 ft 4 kts 165°
2026-04-27 11:22 50.24693 -119.33045 1170 ft 2 kts 162°
2026-04-27 11:22 50.24667 -119.33031 1171 ft 9 kts 159°
2026-04-27 11:23 50.24613 -119.33107 1169 ft 16 kts 246°
2026-04-27 11:23 50.24577 -119.33271 1167 ft 15 kts 252°
2026-04-27 11:23 50.24540 -119.33433 1169 ft 17 kts 252°
2026-04-27 11:23 50.24495 -119.33620 1165 ft 20 kts 254°
2026-04-27 11:24 50.24477 -119.33764 1163 ft 7 kts 282°
2026-04-27 11:24 50.24464 -119.33779 1165 ft 4 kts 98°
2026-04-27 11:24 50.24467 -119.33759 1167 ft 0 kts 69°
2026-04-27 11:25 50.24507 -119.33591 1164 ft 39 kts 69°
2026-04-27 11:25 50.24648 -119.32956 1172 ft 81 kts 70°
2026-04-27 11:25 50.24871 -119.32012 1289 ft 96 kts 70°
2026-04-27 11:26 50.25222 -119.31100 1549 ft 100 kts 50°
2026-04-27 11:26 50.25716 -119.30284 1774 ft 110 kts 46°
2026-04-27 11:26 50.26287 -119.29291 1919 ft 129 kts 52°
2026-04-27 11:26 50.26858 -119.28107 2175 ft 145 kts 52°
2026-04-27 11:27 50.27669 -119.27044 2414 ft 161 kts 36°
2026-04-27 11:27 50.28726 -119.26264 2639 ft 176 kts 20°
2026-04-27 11:27 50.29929 -119.25742 2879 ft 187 kts 11°
2026-04-27 11:27 50.31252 -119.25465 3150 ft 196 kts
2026-04-27 11:28 50.32637 -119.25264 3445 ft 202 kts
2026-04-27 11:28 50.34059 -119.25068 3741 ft 207 kts
2026-04-27 11:28 50.35504 -119.24865 4036 ft 210 kts
2026-04-27 11:28 50.36971 -119.24660 4306 ft 212 kts
2026-04-27 11:29 50.38452 -119.24453 4457 ft 217 kts
2026-04-27 11:29 50.39973 -119.24241 4477 ft 221 kts
2026-04-27 11:29 50.41510 -119.24028 4486 ft 223 kts
2026-04-27 11:29 50.43060 -119.23816 4491 ft 224 kts
2026-04-27 11:30 50.44617 -119.23603 4493 ft 225 kts
2026-04-27 11:30 50.46179 -119.23392 4496 ft 225 kts
2026-04-27 11:30 50.47741 -119.23182 4491 ft 225 kts
2026-04-27 11:30 50.49299 -119.22984 4500 ft 224 kts
2026-04-27 11:31 50.50849 -119.22789 4502 ft 223 kts
2026-04-27 11:31 50.52397 -119.22592 4502 ft 223 kts
2026-04-27 11:31 50.53941 -119.22396 4502 ft 222 kts
2026-04-27 11:31 50.55481 -119.22200 4507 ft 222 kts
2026-04-27 11:32 50.57016 -119.22002 4304 ft 224 kts
2026-04-27 11:32 50.58567 -119.21801 4090 ft 223 kts
2026-04-27 11:32 50.60083 -119.21603 3873 ft 210 kts
2026-04-27 11:32 50.61475 -119.21424 3633 ft 192 kts
2026-04-27 11:33 50.62756 -119.21270 3355 ft 179 kts
2026-04-27 11:33 50.63996 -119.21205 2911 ft 175 kts
2026-04-27 11:33 50.65143 -119.21193 2560 ft 152 kts 356°
2026-04-27 11:33 50.66123 -119.21523 2274 ft 138 kts 339°
2026-04-27 11:34 50.66922 -119.22037 2062 ft 108 kts 338°
2026-04-27 11:34 50.67557 -119.22439 1893 ft 90 kts 338°
2026-04-27 11:34 50.68092 -119.22770 1799 ft 74 kts 339°
2026-04-27 11:34 50.68457 -119.22988 1795 ft 27 kts 338°
2026-04-27 11:35 50.68597 -119.23074 1799 ft 17 kts 335°
2026-04-27 11:35 50.68591 -119.23179 1795 ft 8 kts 236°
2026-04-27 11:35 50.68549 -119.23257 1793 ft 12 kts 230°
2026-04-27 11:35 50.68503 -119.23365 1793 ft 10 kts 226°
2026-04-27 11:36 50.68527 -119.23396 1789 ft 6 kts
2026-04-27 11:36 50.68538 -119.23373 1792 ft 0 kts 81°
2026-04-27 12:08 50.68533 -119.23349 1791 ft 7 kts 96°
2026-04-27 12:08 50.68489 -119.23260 1788 ft 14 kts 143°
2026-04-27 12:09 50.68399 -119.23152 1788 ft 17 kts 142°
2026-04-27 12:09 50.68303 -119.23036 1788 ft 18 kts 143°
2026-04-27 12:09 50.68208 -119.22919 1787 ft 17 kts 142°
2026-04-27 12:09 50.68122 -119.22814 1792 ft 13 kts 142°
2026-04-27 12:10 50.68042 -119.22737 1796 ft 15 kts 157°
2026-04-27 12:10 50.67927 -119.22667 1795 ft 19 kts 159°
2026-04-27 12:10 50.67831 -119.22605 1793 ft 12 kts 170°
2026-04-27 12:10 50.67754 -119.22573 1790 ft 9 kts 169°
2026-04-27 12:11 50.67766 -119.22567 1790 ft 5 kts 340°
2026-04-27 12:11 50.67769 -119.22569 1790 ft 0 kts 340°
2026-04-27 12:11 50.67873 -119.22633 1795 ft 38 kts 339°
2026-04-27 12:11 50.68274 -119.22872 1792 ft 82 kts 340°
2026-04-27 12:12 50.68881 -119.23249 1834 ft 100 kts 338°
2026-04-27 12:12 50.69515 -119.23682 2059 ft 100 kts 333°
2026-04-27 12:12 50.70121 -119.24274 2233 ft 106 kts 326°
2026-04-27 12:12 50.70759 -119.24974 2391 ft 119 kts 326°
2026-04-27 12:13 50.71459 -119.25749 2648 ft 127 kts 327°
2026-04-27 12:13 50.72206 -119.26573 2885 ft 135 kts 326°
2026-04-27 12:13 50.73012 -119.27450 3064 ft 145 kts 326°
2026-04-27 12:13 50.73874 -119.28368 3311 ft 154 kts 327°
2026-04-27 12:14 50.74792 -119.29342 3576 ft 163 kts 327°
2026-04-27 12:14 50.75756 -119.30369 3821 ft 172 kts 326°
2026-04-27 12:14 50.76794 -119.31484 3925 ft 187 kts 327°
2026-04-27 12:14 50.77890 -119.32672 3968 ft 199 kts 326°
2026-04-27 12:15 50.79050 -119.33928 3985 ft 205 kts 326°
2026-04-27 12:15 50.80240 -119.35222 3996 ft 209 kts 326°
2026-04-27 12:15 50.81440 -119.36527 3998 ft 209 kts 324°
2026-04-27 12:15 50.82418 -119.38211 4022 ft 208 kts 308°
2026-04-27 12:16 50.83284 -119.40054 4047 ft 210 kts 307°
2026-04-27 12:16 50.84134 -119.41958 4026 ft 212 kts 306°
2026-04-27 12:16 50.84976 -119.43878 4020 ft 212 kts 306°
2026-04-27 12:16 50.85814 -119.45803 4016 ft 213 kts 306°
2026-04-27 12:17 50.86652 -119.47733 4013 ft 212 kts 306°
2026-04-27 12:17 50.87458 -119.49607 3973 ft 201 kts 306°
2026-04-27 12:17 50.88210 -119.51366 3759 ft 186 kts 305°
2026-04-27 12:17 50.88762 -119.53117 3491 ft 175 kts 275°
2026-04-27 12:18 50.88544 -119.54939 3214 ft 162 kts 251°
2026-04-27 12:18 50.87974 -119.56320 2929 ft 143 kts 228°
2026-04-27 12:18 50.87338 -119.57458 2661 ft 136 kts 227°
2026-04-27 12:18 50.86577 -119.58161 2435 ft 126 kts 179°
2026-04-27 12:19 50.85782 -119.58401 2317 ft 114 kts 228°
2026-04-27 12:19 50.85754 -119.59485 2267 ft 107 kts 312°
2026-04-27 12:19 50.86427 -119.59485 2096 ft 109 kts 46°
2026-04-27 12:19 50.86615 -119.58403 1929 ft 94 kts 83°
2026-04-27 12:20 50.86953 -119.57718 1743 ft 88 kts 358°
2026-04-27 12:20 50.87317 -119.58342 1507 ft 85 kts 273°
2026-04-27 12:20 50.87652 -119.59011 1248 ft 86 kts 346°
2026-04-27 12:20 50.88184 -119.59110 1200 ft 57 kts 350°
2026-04-27 12:21 50.88295 -119.59108 1200 ft 6 kts 135°
2026-04-27 12:21 50.88258 -119.59103 1199 ft 4 kts 180°
2026-04-27 12:21 50.88236 -119.59102 1199 ft 3 kts 180°
2026-04-27 12:21 50.88193 -119.59095 1199 ft 7 kts 170°
2026-04-27 12:22 50.88141 -119.59079 1199 ft 8 kts 171°
2026-04-27 12:22 50.88077 -119.59068 1197 ft 11 kts 172°
2026-04-27 12:22 50.87981 -119.59054 1186 ft 15 kts 176°
2026-04-27 12:22 50.87911 -119.59010 1187 ft 7 kts 81°
2026-04-27 12:23 50.87929 -119.58973 1192 ft 2 kts 38°
2026-04-27 12:23 50.87934 -119.58970 1193 ft 4 kts 353°
2026-04-27 12:23 50.87955 -119.58976 1190 ft 0 kts 357°
2026-04-27 12:28 50.87956 -119.58977 1190 ft 0 kts 356°
2026-04-27 12:28 50.87957 -119.58977 1190 ft 0 kts 355°
2026-04-27 12:28 50.87966 -119.58970 1191 ft 6 kts 46°
2026-04-27 12:28 50.87995 -119.58938 1191 ft 10 kts 358°
2026-04-27 12:29 50.88032 -119.58971 1195 ft 9 kts 272°
2026-04-27 12:29 50.88030 -119.59080 1195 ft 7 kts 265°
2026-04-27 12:29 50.87963 -119.59079 1187 ft 12 kts 174°
2026-04-27 12:29 50.87942 -119.59076 1187 ft 0 kts 175°
2026-04-27 12:30 50.87941 -119.59076 1187 ft 4 kts 175°
2026-04-27 12:30 50.87754 -119.59047 1181 ft 51 kts 174°
2026-04-27 12:30 50.87258 -119.58964 1199 ft 87 kts 169°
2026-04-27 12:30 50.86649 -119.58862 1386 ft 95 kts 192°
2026-04-27 12:31 50.86125 -119.59499 1628 ft 102 kts 236°
2026-04-27 12:31 50.85788 -119.60596 1827 ft 117 kts 243°
2026-04-27 12:31 50.85449 -119.61861 2068 ft 133 kts 248°
2026-04-27 12:31 50.85125 -119.63338 2315 ft 154 kts 252°
2026-04-27 12:32 50.84770 -119.65047 2552 ft 172 kts 252°
2026-04-27 12:32 50.84372 -119.66921 2806 ft 186 kts 251°
2026-04-27 12:32 50.83947 -119.68890 3219 ft 190 kts 251°
2026-04-27 12:32 50.83505 -119.70879 3646 ft 193 kts 252°
2026-04-27 12:33 50.83046 -119.72896 4033 ft 195 kts 251°
2026-04-27 12:33 50.82578 -119.74931 4427 ft 198 kts 251°
2026-04-27 12:33 50.82099 -119.76998 4760 ft 204 kts 251°
2026-04-27 12:33 50.81595 -119.79169 4908 ft 216 kts 251°
2026-04-27 12:34 50.81079 -119.81427 4980 ft 226 kts 251°
2026-04-27 12:34 50.80539 -119.83803 5008 ft 233 kts 251°
2026-04-27 12:34 50.79985 -119.86251 5022 ft 238 kts 251°
2026-04-27 12:34 50.79426 -119.88728 5028 ft 239 kts 251°
2026-04-27 12:35 50.78867 -119.91194 5028 ft 238 kts 251°
2026-04-27 12:35 50.78316 -119.93628 5035 ft 237 kts 251°
2026-04-27 12:35 50.77766 -119.96086 5037 ft 237 kts 251°
2026-04-27 12:35 50.77213 -119.98537 5043 ft 237 kts 251°
2026-04-27 12:36 50.76661 -120.00980 5046 ft 236 kts 251°
2026-04-27 12:36 50.76120 -120.03422 5047 ft 235 kts 251°
2026-04-27 12:36 50.75575 -120.05860 5047 ft 235 kts 251°
2026-04-27 12:36 50.75034 -120.08304 5049 ft 235 kts 252°
2026-04-27 12:37 50.74505 -120.10748 5049 ft 234 kts 255°
2026-04-27 12:37 50.74201 -120.13259 5046 ft 233 kts 262°
2026-04-27 12:37 50.74004 -120.15794 5040 ft 233 kts 265°
2026-04-27 12:37 50.73826 -120.18344 5049 ft 234 kts 265°
2026-04-27 12:38 50.73657 -120.20897 5051 ft 234 kts 265°
2026-04-27 12:38 50.73495 -120.23430 5053 ft 235 kts 265°
2026-04-27 12:38 50.73331 -120.26004 5049 ft 235 kts 266°
2026-04-27 12:38 50.73168 -120.28555 5045 ft 234 kts 266°
2026-04-27 12:39 50.73002 -120.31080 4875 ft 230 kts 265°
2026-04-27 12:39 50.72840 -120.33580 4618 ft 228 kts 265°
2026-04-27 12:39 50.72696 -120.36022 4302 ft 220 kts 265°
2026-04-27 12:39 50.72552 -120.38328 4174 ft 201 kts 264°
2026-04-27 12:40 50.72367 -120.40427 3922 ft 186 kts 262°
2026-04-27 12:40 50.72180 -120.42389 3643 ft 175 kts 262°
2026-04-27 12:40 50.71999 -120.44243 3348 ft 167 kts 262°
2026-04-27 12:40 50.71908 -120.46020 3039 ft 160 kts 277°
2026-04-27 12:41 50.72185 -120.47684 2792 ft 154 kts 287°
2026-04-27 12:41 50.72474 -120.49249 2656 ft 147 kts 285°
2026-04-27 12:41 50.72722 -120.50789 2573 ft 139 kts 283°
2026-04-27 12:41 50.72873 -120.52244 2461 ft 135 kts 266°
2026-04-27 12:42 50.72520 -120.53518 2452 ft 126 kts 220°
2026-04-27 12:42 50.71725 -120.54052 2341 ft 126 kts 180°
2026-04-27 12:42 50.70934 -120.53592 2259 ft 124 kts 131°
2026-04-27 12:42 50.70647 -120.52384 2153 ft 119 kts 85°
2026-04-27 12:43 50.70736 -120.51089 1958 ft 118 kts 85°
2026-04-27 12:43 50.70800 -120.49865 1833 ft 107 kts 87°
2026-04-27 12:43 50.70806 -120.48718 1650 ft 103 kts 92°
2026-04-27 12:43 50.70720 -120.47675 1459 ft 91 kts 99°
2026-04-27 12:44 50.70583 -120.46726 1243 ft 87 kts 101°
2026-04-27 12:44 50.70451 -120.45847 1133 ft 74 kts 101°
2026-04-27 12:44 50.70350 -120.45171 1134 ft 51 kts 104°
2026-04-27 12:44 50.70279 -120.44696 1132 ft 40 kts 102°
2026-04-27 12:45 50.70245 -120.44422 1131 ft 16 kts 80°
2026-04-27 12:45 50.70334 -120.44348 1132 ft 15 kts 56°
2026-04-27 12:45 50.70382 -120.44219 1131 ft 13 kts 62°
2026-04-27 12:45 50.70427 -120.44091 1135 ft 14 kts 59°
2026-04-27 12:46 50.70501 -120.43995 1133 ft 14 kts 25°
2026-04-27 12:46 50.70562 -120.43894 1132 ft 12 kts 59°
2026-04-27 12:46 50.70578 -120.43801 1131 ft 8 kts 142°
2026-04-27 12:46 50.70575 -120.43766 1131 ft 1 kts 59°
2026-04-27 12:47 50.70578 -120.43759 1131 ft 1 kts 60°
2026-04-27 12:47 50.70580 -120.43753 1131 ft 0 kts 62°